Date String (YYYY-MM-DD hh:mm:ss) UTC,Instrument flags,Ambient pressure (hPa),Sample flow (lpm),Bypass flow (lpm),Sample temperature (°C),Ambient temperature (°C),ASC tube jacket temperature (°C),LED temperature (°C),Box temperature (°C),Sample RH (%),Span deviation,Mass concentration (μg/m³),Mass concentration (μg/m³),Mass concentration (μg/m³)
DateTimeUTC,F1_M11,P_M11,Q1_M11,Q2_M11,T1_M11,T2_M11,T3_M11,T4_M11,T5_M11,U1_M11,ZSPAN_M11,X0_M11,X2_M11,X1_M11
2022-04-30 13:00:00,,0824.1,5.00,0.00,22.3,21.6,00.0,31.3,24.1,15.0,0000.0,0004.24,0001.49,0001.15
2022-04-30 13:01:00,,0824.1,5.00,0.00,22.3,21.6,00.0,31.3,24.1,15.0,0000.0,0004.27,0001.49,0001.14
2022-04-30 13:02:00,,0824.1,5.00,0.00,22.3,21.6,00.0,31.3,24.1,15.0,0000.0,0004.29,0001.49,0001.14
2022-04-30 13:03:00,,0824.1,4.99,0.00,22.3,21.6,00.0,31.3,24.1,15.1,0000.0,0004.17,0001.51,0001.13
2022-04-30 13:04:00,,0824.1,5.00,0.00,22.3,21.6,00.0,31.3,24.1,15.2,0000.0,0003.53,0001.53,0001.12
2022-04-30 13:05:00,,0824.1,5.00,0.00,22.3,21.6,00.0,31.3,24.1,15.1,0000.0,0003.46,0001.50,0001.13
2022-04-30 13:06:00,,0824.1,5.00,0.00,22.3,21.6,00.0,31.3,24.1,15.0,0000.0,0003.43,0001.50,0001.13
2022-04-30 13:07:00,,0824.2,4.99,0.00,22.3,21.6,00.0,31.3,24.1,15.2,0000.0,0002.68,0001.49,0001.13
2022-04-30 13:08:00,,0824.1,5.00,0.00,22.3,21.6,00.0,31.3,24.2,15.2,0000.0,0002.23,0001.51,0001.14
2022-04-30 13:09:00,,0824.2,5.01,0.00,22.4,21.7,00.0,31.3,24.2,14.9,0000.0,0002.40,0001.51,0001.14
2022-04-30 13:10:00,,0824.2,5.02,0.00,22.4,21.7,00.0,31.3,24.2,15.1,0000.0,0002.58,0001.51,0001.13
2022-04-30 13:11:00,,0824.2,4.99,0.00,22.4,21.7,00.0,31.3,24.2,15.0,0000.0,0002.50,0001.49,0001.13
2022-04-30 13:12:00,,0824.3,5.00,0.00,22.4,21.7,00.0,31.3,24.1,15.0,0000.0,0002.40,0001.45,0001.11
2022-04-30 13:13:00,,0824.3,4.99,0.00,22.3,21.7,00.0,31.3,24.1,15.0,0000.0,0002.41,0001.47,0001.11
2022-04-30 13:14:00,,0824.3,5.00,0.00,22.3,21.7,00.0,31.3,24.1,15.0,0000.0,0002.43,0001.48,0001.12
2022-04-30 13:15:00,,0824.3,5.00,0.00,22.3,21.7,00.0,31.3,24.2,15.1,0000.0,0002.53,0001.47,0001.12
2022-04-30 13:16:00,,0824.3,5.00,0.00,22.4,21.7,00.0,31.3,24.1,15.1,0000.0,0002.79,0001.49,0001.11
2022-04-30 13:17:00,,0824.3,5.00,0.00,22.4,21.7,00.0,31.3,24.2,15.1,0000.0,0002.96,0001.49,0001.12
2022-04-30 13:18:00,,0824.3,5.01,0.00,22.4,21.7,00.0,31.3,24.2,15.1,0000.0,0003.00,0001.50,0001.12
2022-04-30 13:19:00,,0824.3,5.00,0.00,22.4,21.7,00.0,31.3,24.2,15.2,0000.0,0002.99,0001.50,0001.13
2022-04-30 13:20:00,,0824.3,4.99,0.00,22.4,21.7,00.0,31.3,24.3,15.2,0000.0,0002.82,0001.51,0001.13
2022-04-30 13:21:00,,0824.3,4.99,0.00,22.4,21.7,00.0,31.3,24.3,15.0,0000.0,0002.81,0001.56,0001.15
2022-04-30 13:22:00,,0824.3,5.00,0.00,22.4,21.8,00.0,31.3,24.3,15.0,0000.0,0002.89,0001.58,0001.16
2022-04-30 13:23:00,,0824.3,5.00,0.00,22.4,21.7,00.0,31.3,24.2,15.1,0000.0,0002.95,0001.60,0001.18
2022-04-30 13:24:00,,0824.3,5.00,0.00,22.4,21.7,00.0,31.3,24.2,15.1,0000.0,0003.67,0001.59,0001.19
2022-04-30 13:25:00,,0824.3,4.99,0.00,22.4,21.7,00.0,31.3,24.2,15.2,0000.0,0004.17,0001.57,0001.18
2022-04-30 13:26:00,,0824.3,5.00,0.00,22.4,21.7,00.0,31.3,24.2,15.2,0000.0,0004.43,0001.60,0001.19
2022-04-30 13:27:00,,0824.3,5.00,0.00,22.4,21.7,00.0,31.3,24.2,15.2,0000.0,0004.40,0001.62,0001.19
2022-04-30 13:28:00,,0824.4,5.00,0.00,22.4,21.6,00.0,31.3,24.1,15.2,0000.0,0004.41,0001.62,0001.18
2022-04-30 13:29:00,,0824.4,5.01,0.00,22.3,21.6,00.0,31.3,24.1,15.3,0000.0,0005.40,0001.64,0001.18
2022-04-30 13:30:00,,0824.4,5.00,0.00,22.3,21.5,00.0,31.3,24.0,15.1,0000.0,0005.49,0001.65,0001.16
2022-04-30 13:31:00,,0824.4,4.99,0.00,22.3,21.5,00.0,31.3,24.0,15.2,0000.0,0005.44,0001.63,0001.17
2022-04-30 13:32:00,,0824.4,4.99,0.00,22.3,21.4,00.0,31.3,24.0,15.2,0000.0,0005.65,0001.60,0001.16
2022-04-30 13:33:00,,0824.4,5.00,0.00,22.3,21.5,00.0,31.3,24.0,15.2,0000.0,0005.83,0001.64,0001.17
2022-04-30 13:34:00,,0824.4,5.00,0.00,22.3,21.5,00.0,31.3,24.0,15.4,0000.0,0005.89,0001.64,0001.16
2022-04-30 13:35:00,,0824.4,5.01,0.00,22.3,22.2,00.0,31.3,24.2,15.3,0000.0,0005.65,0001.66,0001.16
2022-04-30 13:36:00,,0824.5,5.00,0.00,22.5,23.1,00.0,31.4,24.5,15.2,0000.0,0005.29,0001.65,0001.15
2022-04-30 13:37:00,,0824.4,5.00,0.00,22.6,23.2,00.0,31.4,24.6,15.1,0000.0,0005.61,0001.61,0001.14
2022-04-30 13:38:00,,0824.4,5.01,0.00,22.6,23.0,00.0,31.4,24.6,14.9,0000.0,0006.64,0001.55,0001.14
2022-04-30 13:39:00,,0824.4,4.98,0.00,22.6,22.8,00.0,31.4,24.5,15.0,0000.0,0006.63,0001.55,0001.14
2022-04-30 13:40:00,,0824.4,5.01,0.00,22.6,22.6,00.0,31.4,24.5,15.0,0000.0,0005.47,0001.53,0001.14
2022-04-30 13:41:00,,0824.4,5.00,0.00,22.6,22.4,00.0,31.4,24.4,14.9,0000.0,0006.36,0001.51,0001.14
2022-04-30 13:42:00,,0824.5,5.01,0.00,22.6,22.2,00.0,31.5,24.4,14.8,0000.0,0006.73,0001.54,0001.14
2022-04-30 13:43:00,,0824.6,5.00,0.00,22.6,22.1,00.0,31.5,24.4,14.8,0000.0,0007.32,0001.60,0001.14
2022-04-30 13:44:00,,0824.6,5.00,0.00,22.6,22.1,00.0,31.5,24.4,14.8,0000.0,0007.36,0001.55,0001.13
2022-04-30 13:45:00,,0824.6,5.00,0.00,22.5,22.0,00.0,31.5,24.4,14.7,0000.0,0007.37,0001.54,0001.11
2022-04-30 13:46:00,,0824.6,5.00,0.00,22.5,22.0,00.0,31.5,24.3,14.7,0000.0,0007.15,0001.51,0001.10
2022-04-30 13:47:00,,0824.6,5.01,0.00,22.5,21.9,00.0,31.5,24.3,14.8,0000.0,0007.03,0001.50,0001.09
2022-04-30 13:48:00,,0824.6,5.00,0.00,22.5,21.9,00.0,31.5,24.3,14.9,0000.0,0007.57,0001.56,0001.10
2022-04-30 13:49:00,,0824.6,4.99,0.00,22.5,21.9,00.0,31.5,24.3,14.8,0000.0,0007.89,0001.60,0001.09
2022-04-30 13:50:00,,0824.7,5.00,0.00,22.5,21.9,00.0,31.5,24.3,14.8,0000.0,0007.76,0001.61,0001.10
2022-04-30 13:51:00,,0824.7,5.00,0.00,22.5,21.9,00.0,31.5,24.3,14.7,0000.0,0007.71,0001.58,0001.08
2022-04-30 13:52:00,,0824.6,5.00,0.00,22.5,21.9,00.0,31.5,24.3,14.7,0000.0,0007.18,0001.59,0001.09
2022-04-30 13:53:00,,0824.6,5.00,0.00,22.5,21.9,00.0,31.5,24.3,14.8,0000.0,0006.85,0001.62,0001.11
2022-04-30 13:54:00,,0824.6,5.00,0.00,22.5,21.9,00.0,31.5,24.3,14.7,0000.0,0006.30,0001.62,0001.14
2022-04-30 13:55:00,,0824.7,5.00,0.00,22.5,21.9,00.0,31.5,24.3,14.5,0000.0,0006.12,0001.65,0001.15
2022-04-30 13:56:00,,0824.7,5.01,0.00,22.5,22.0,00.0,31.5,24.3,14.6,0000.0,0006.95,0001.66,0001.18
2022-04-30 13:57:00,,0824.6,5.00,0.00,22.5,22.0,00.0,31.5,24.3,14.7,0000.0,0007.14,0001.82,0001.33
2022-04-30 13:58:00,,0824.6,5.00,0.00,22.5,21.9,00.0,31.5,24.3,14.5,0000.0,0007.15,0001.92,0001.44
2022-04-30 13:59:00,,0824.6,4.99,0.00,22.5,21.9,00.0,31.5,24.4,14.6,0000.0,0006.39,0001.92,0001.49
